Location: Bennemühlen
(52.5740°N, 9.7135°E)
Time: 19:19:53
(UTC+00:00)

A-11 Canister half - Pass Details

Date: 20 February 2026
Orbit: 1512 x 1687 km, 47.2° (Epoch: 8 March)

Event Time Altitude Azimuth Distance (km) Brightness Sun altitude
Rises 21:44:47 0° 253° (WSW) 4,936 11.9 -42.6°
Reaches altitude 10° 21:48:00 10° 251° (WSW) 3,941 11.3 -42.9°
Enters shadow 21:51:49 27° 245° (WSW) 2,828 10.3 -43.2°
Maximum altitude 21:57:57 64° 173° (S) 1,795 - -43.8°
Drops below altitude 10° 22:07:36 10° 95° (E) 3,833 - -44.5°
Sets 22:10:41 0° 93° (E) 4,796 - -44.8°
